DMSP 5D-2 F11 DEB, 29069

Orbit data source: Space-Track

DMSP 5D-2 F11 DEB, 29069 is space debris in SSO originally from a launch on Thu, 28 Nov 1991 UTC launched from the Air Force Western Test Range (AFWTR). Debris objects in space refer to the collection of defunct objects orbiting the Earth. Examples of debris include non-operational satellites, rocket bodies, and fragments generated from explosions, collisions, or faulty payload assembly.

Loading next visibility...
Identifier
29069, 1991-082BQ
Orbit
SSO
Country
Flag of USUS
Related business
Manufacturer
Unknown
Mission
Spacecraft
Bus & Motor
Unknown
Mass
Unknown
Launch date (UTC)
1991-11-28 (34 years ago)
Launch vehicle
Unknown
Launch site
Air Force Western Test Range (AFWTR)
Object type
Payload
Rocket body
Debris
Shape & HBR
Unknown shape, 0.1 m
Radar Cross Section
Small (<0.1 m²)

Expand to show TLE details & history
Last TLE update: 4 days ago

TLE from 4 days ago
0 DMSP 5D-2 F11 DEB
1 29069U 91082BQ  25346.13190777  .00011432  00000-0  34679-2 0  9993
2 29069  98.9223  52.2097 0065184 209.0386 181.2241 14.41132322 89816
Epoch: 2025-12-12T03:09Z
TLE epoch observation values (Epoch: 2025-12-12T03:09:56.831Z)
Latitude
29.89486°
Longitude
-81.50591°
Altitude
805.001 km
Speed
7.429 km/s
True Right ascension
03h 08m 14s
True Declination
29° 44' 51"
Sunlit
Object was in full shadow at epoch
Visualization orbit readout
Latitude
Unknown
Longitude
Unknown
Altitude
Unknown
Speed
Unknown
Apparent Right ascension
Unknown
Apparent Declination
Unknown
Sunlit
N/A
Visualization observer readout
Local Sidereal Time
03:06:10
Azimuth
Unknown
Elevation
Unknown
Doppler factor
Unknown
Orbital elements
Apogee altitude
798.377 km
Perigee altitude
705.424 km
Semi-major axis
7,130.037 km
Eccentricity
0.00652
Inclination
98.9223°
RAAN
52.2097°
Arg. of periapsis
209.0386°
True anomaly
181.20827°
Mean anomaly
181.2241°
Eccentric anomaly
181.21617°
Mean motion
3.605 °/min
Orbital period
99.86 mins
BSTAR
0.0034679
Loading maneuver chart data...
Computing Atmospheric mass density...

Documentation

Showing up to 5 results
|